When you browse on this site, cookies collect data to enhance your experience and personalize the content and advertising you see.
Visit our Privacy Policy to learn more. By continuing to use the site, you agree to this use of cookies and data.
  • En España
  • Lista de países
  • Para 7 días
  • Temperatura del agua
  • El tiempo en el mapa
  • Informadores
  • user-avatar
    Iniciar sesión

    Tiempo cada hora Bolshoe Zagore

    Hoy, 2 Junio, Martes

    Tiempo Temperatura Precipitaciones Viento Presión Humedad
    00:00 +7°C° 0.6 mm 6 mps 741 mmHg 93%
    01:00 +6°C° 0.6 mm 7 mps 741 mmHg 93%
    02:00 +6°C° 0 mm 7 mps 741 mmHg 90%
    03:00 +6°C° 0.2 mm 7 mps 741 mmHg 90%
    04:00 +6°C° 0.2 mm 7 mps 740 mmHg 91%
    05:00 +5°C° 0.2 mm 6 mps 740 mmHg 91%
    06:00 +5°C° 1.1 mm 7 mps 740 mmHg 92%
    07:00 +5°C° 1.1 mm 7 mps 740 mmHg 93%
    08:00 +6°C° 0 mm 7 mps 740 mmHg 95%
    09:00 +6°C° 0.2 mm 7 mps 740 mmHg 94%
    10:00 +6°C° 0.2 mm 7 mps 740 mmHg 93%
    11:00 +8°C° 0.2 mm 7 mps 740 mmHg 91%
    12:00 +8°C° 0 mm 7 mps 741 mmHg 91%
    13:00 +8°C° 0 mm 7 mps 741 mmHg 90%
    14:00 +8°C° 0 mm 7 mps 741 mmHg 89%
    15:00 +9°C° 0 mm 7 mps 741 mmHg 86%
    16:00 +10°C° 0 mm 7 mps 740 mmHg 84%
    17:00 +10°C° 0 mm 7 mps 740 mmHg 81%
    18:00 +10°C° 0.3 mm 6 mps 740 mmHg 84%
    19:00 +9°C° 0.3 mm 6 mps 740 mmHg 87%
    20:00 +8°C° 0.3 mm 5 mps 740 mmHg 89%
    21:00 +8°C° 0.2 mm 5 mps 740 mmHg 91%
    22:00 +8°C° 0.2 mm 4 mps 740 mmHg 93%
    23:00 +8°C° 0.2 mm 4 mps 740 mmHg 94%

    Mañana, 3 Junio, Miércoles

    Tiempo Temperatura Precipitaciones Viento Presión Humedad
    00:00 +9°C° 0.1 mm 3 mps 740 mmHg 95%
    01:00 +9°C° 0.1 mm 3 mps 740 mmHg 96%
    02:00 +9°C° 0.1 mm 3 mps 740 mmHg 97%
    03:00 +9°C° 0 mm 3 mps 740 mmHg 97%
    04:00 +9°C° 0 mm 2 mps 739 mmHg 97%
    05:00 +9°C° 0 mm 2 mps 739 mmHg 97%
    06:00 +10°C° 0 mm 2 mps 739 mmHg 95%
    07:00 +12°C° 0 mm 2 mps 739 mmHg 92%
    08:00 +13°C° 0 mm 2 mps 740 mmHg 90%
    09:00 +14°C° 0.1 mm 2 mps 739 mmHg 85%
    10:00 +15°C° 0.1 mm 1 mps 739 mmHg 79%
    11:00 +16°C° 0.1 mm 1 mps 739 mmHg 74%
    12:00 +18°C° 0.2 mm 1 mps 739 mmHg 70%
    13:00 +19°C° 0.2 mm 1 mps 739 mmHg 66%
    14:00 +20°C° 0.2 mm 1 mps 739 mmHg 63%
    15:00 +19°C° 0.2 mm 1 mps 738 mmHg 64%
    16:00 +19°C° 0.2 mm 1 mps 738 mmHg 66%
    17:00 +19°C° 0.2 mm 1 mps 738 mmHg 68%
    18:00 +16°C° 0.1 mm 1 mps 738 mmHg 76%
    19:00 +14°C° 0.1 mm 1 mps 737 mmHg 83%
    20:00 +13°C° 0.1 mm 1 mps 737 mmHg 91%
    21:00 +12°C° 0 mm 1 mps 737 mmHg 92%
    22:00 +11°C° 0 mm 1 mps 737 mmHg 93%
    23:00 +10°C° 0 mm 1 mps 736 mmHg 94%

    Pasado mañana, 4 Junio, Jueves

    Tiempo Temperatura Precipitaciones Viento Presión Humedad
    00:00 +10°C° 0 mm 1 mps 736 mmHg 94%
    01:00 +10°C° 0 mm 1 mps 736 mmHg 94%
    02:00 +9°C° 0 mm 1 mps 736 mmHg 94%
    03:00 +9°C° 0 mm 1 mps 736 mmHg 93%
    04:00 +10°C° 0 mm 1 mps 736 mmHg 93%
    05:00 +10°C° 0 mm 1 mps 736 mmHg 92%
    06:00 +12°C° 0 mm 2 mps 736 mmHg 88%
    07:00 +13°C° 0 mm 2 mps 736 mmHg 83%
    08:00 +14°C° 0 mm 3 mps 736 mmHg 78%
    09:00 +16°C° 0.2 mm 3 mps 736 mmHg 76%
    10:00 +17°C° 0.2 mm 4 mps 736 mmHg 74%
    11:00 +17°C° 0.2 mm 4 mps 736 mmHg 71%
    12:00 +17°C° 0.8 mm 4 mps 736 mmHg 75%
    13:00 +17°C° 0.8 mm 4 mps 736 mmHg 78%
    14:00 +17°C° 0.8 mm 4 mps 736 mmHg 82%
    15:00 +17°C° 0.5 mm 4 mps 736 mmHg 82%
    16:00 +17°C° 0.5 mm 4 mps 736 mmHg 81%
    17:00 +17°C° 0.5 mm 4 mps 736 mmHg 81%
    18:00 +14°C° 0.2 mm 3 mps 736 mmHg 85%
    19:00 +13°C° 0.2 mm 3 mps 736 mmHg 88%
    20:00 +12°C° 0.2 mm 3 mps 736 mmHg 92%
    21:00 +11°C° 0 mm 3 mps 736 mmHg 93%
    22:00 +11°C° 0 mm 3 mps 737 mmHg 94%
    23:00 +10°C° 0 mm 3 mps 737 mmHg 95%

    5 Junio, Viernes

    Tiempo Temperatura Precipitaciones Viento Presión Humedad
    00:00 +10°C° 0 mm 3 mps 737 mmHg 96%
    01:00 +10°C° 0 mm 3 mps 737 mmHg 96%
    02:00 +9°C° 0 mm 3 mps 737 mmHg 97%
    03:00 +10°C° 0 mm 3 mps 737 mmHg 97%
    04:00 +10°C° 0 mm 3 mps 737 mmHg 97%
    05:00 +10°C° 0 mm 3 mps 737 mmHg 97%
    06:00 +11°C° 0 mm 3 mps 737 mmHg 92%
    07:00 +13°C° 0 mm 4 mps 737 mmHg 87%
    08:00 +14°C° 0 mm 4 mps 738 mmHg 82%
    09:00 +15°C° 0.2 mm 4 mps 738 mmHg 77%
    10:00 +17°C° 0.2 mm 4 mps 738 mmHg 72%
    11:00 +19°C° 0.2 mm 4 mps 738 mmHg 66%
    12:00 +19°C° 0.2 mm 4 mps 738 mmHg 65%
    13:00 +19°C° 0.2 mm 4 mps 738 mmHg 64%
    14:00 +20°C° 0.2 mm 4 mps 737 mmHg 63%
    15:00 +20°C° 0.1 mm 4 mps 737 mmHg 66%
    16:00 +20°C° 0.1 mm 4 mps 737 mmHg 68%
    17:00 +20°C° 0.1 mm 4 mps 737 mmHg 71%
    18:00 +18°C° 0.2 mm 4 mps 737 mmHg 78%
    19:00 +17°C° 0.2 mm 3 mps 737 mmHg 84%
    20:00 +16°C° 0.2 mm 3 mps 738 mmHg 91%
    21:00 +14°C° 0 mm 3 mps 738 mmHg 92%
    22:00 +14°C° 0 mm 3 mps 738 mmHg 93%
    23:00 +13°C° 0 mm 3 mps 738 mmHg 95%

    6 Junio, Sábado

    Tiempo Temperatura Precipitaciones Viento Presión Humedad
    00:00 +14°C° 0.1 mm 3 mps 738 mmHg 95%
    01:00 +14°C° 0.1 mm 3 mps 738 mmHg 96%
    02:00 +14°C° 0.1 mm 4 mps 738 mmHg 96%
    03:00 +14°C° 1.1 mm 4 mps 737 mmHg 97%
    04:00 +14°C° 1.1 mm 4 mps 737 mmHg 97%
    05:00 +14°C° 1.1 mm 4 mps 737 mmHg 98%
    06:00 +15°C° 0.2 mm 4 mps 738 mmHg 96%
    07:00 +17°C° 0.2 mm 4 mps 738 mmHg 95%
    08:00 +18°C° 0.2 mm 4 mps 738 mmHg 94%
    09:00 +19°C° 0.1 mm 4 mps 738 mmHg 89%
    10:00 +20°C° 0.1 mm 5 mps 738 mmHg 85%
    11:00 +21°C° 0.1 mm 5 mps 739 mmHg 80%
    12:00 +21°C° 1.2 mm 5 mps 739 mmHg 84%
    13:00 +20°C° 1.2 mm 5 mps 739 mmHg 88%
    14:00 +19°C° 1.2 mm 5 mps 739 mmHg 92%
    15:00 +19°C° 0.3 mm 4 mps 740 mmHg 91%
    16:00 +19°C° 0.3 mm 3 mps 740 mmHg 89%
    17:00 +20°C° 0.3 mm 3 mps 741 mmHg 87%
    18:00 +19°C° 0 mm 2 mps 741 mmHg 89%
    19:00 +18°C° 0 mm 2 mps 742 mmHg 92%
    20:00 +18°C° 0 mm 1 mps 742 mmHg 94%
    21:00 +16°C° 0 mm 1 mps 742 mmHg 94%
    22:00 +15°C° 0 mm 1 mps 743 mmHg 94%
    23:00 +14°C° 0 mm 1 mps 743 mmHg 94%

    7 Junio, Domingo

    Tiempo Temperatura Precipitaciones Viento Presión Humedad
    00:00 +13°C° 0 mm 1 mps 744 mmHg 94%
    01:00 +13°C° 0 mm 1 mps 744 mmHg 93%
    02:00 +13°C° 0 mm 1 mps 744 mmHg 93%
    03:00 +13°C° 0 mm 1 mps 745 mmHg 93%
    04:00 +13°C° 0 mm 1 mps 745 mmHg 93%
    05:00 +14°C° 0 mm 1 mps 745 mmHg 93%
    06:00 +16°C° 0 mm 1 mps 745 mmHg 87%
    07:00 +19°C° 0 mm 1 mps 746 mmHg 82%
    08:00 +20°C° 0 mm 1 mps 746 mmHg 76%
    09:00 +22°C° 0 mm 1 mps 746 mmHg 71%
    10:00 +23°C° 0 mm 1 mps 746 mmHg 66%
    11:00 +25°C° 0 mm 1 mps 747 mmHg 61%
    12:00 +25°C° 0 mm 1 mps 746 mmHg 60%
    13:00 +25°C° 0 mm 1 mps 746 mmHg 59%
    14:00 +26°C° 0 mm 1 mps 746 mmHg 58%
    15:00 +25°C° 0.1 mm 1 mps 746 mmHg 62%
    16:00 +25°C° 0.1 mm 1 mps 746 mmHg 65%
    17:00 +25°C° 0.1 mm 1 mps 746 mmHg 68%
    18:00 +23°C° 0.4 mm 1 mps 745 mmHg 75%
    19:00 +22°C° 0.4 mm 1 mps 745 mmHg 82%
    20:00 +20°C° 0.4 mm 1 mps 745 mmHg 90%
    21:00 +20°C° 0.4 mm 1 mps 745 mmHg 91%
    22:00 +19°C° 0.4 mm 1 mps 745 mmHg 93%
    23:00 +19°C° 0.4 mm 1 mps 745 mmHg 94%
    Mostrar más